Partly cloudy and few cirrus
Partly cloudy and few cirrus
Partly cloudy
Clear with few low clouds
Partly cloudy
Partly cloudy
Partly cloudy
(°C)
28°
28°
27°
27°
27°
27°
27°
27°
27°
27°
28°
28°
29°
29°
(°C)
25°
25°
25°
26°
26°
28°
29°
NNW
NNW
NW
NNW
WNW
NW
WNW
(km/h)
11-29
10-27
8-21
7-17
6-16
6-14
7-21
(mm)
0
0
0
0
0
0
0
(%)
0
0
0
0
0
0
0

Sun elevation

/ -27.7°
sun-icon
UV 8
05:46
18:52
Waxing gibbous moon (163°)
17:31
04:48

METAR for New Delhi (VIDP)

Time Conditions Temperature/
Dewpoint
Wind Visibility Weather Clouds Pressure Change Raw
IFR 26°C / 8°C 320º 10kt Gust 20kt 3200m Thunderstorm Few Clouds 3500ft
Few Clouds 4000ft
Broken Clouds 10000ft
1008 Temporary: Wind 320º 10kt. Gust 20KT. Visibility 2000. Light Thunderstorm Rain . VIDP 212130Z 32010G20KT 3200 TS FEW035 FEW040CB BKN100 26/08 Q1008 TEMPO 32010G20KT 2000 -TSRA
IFR 28°C / 9°C 320º 6kt Gust 16kt 3200m Haze Few Clouds 3500ft
Few Clouds 4000ft
Scattered Clouds 10000ft
1007 Temporary: Visibility 3000. Light Thunderstorm Rain . VIDP 212100Z 32006G16KT 3200 HZ FEW035 FEW040CB SCT100 28/09 Q1007 TEMPO 3000 -TSRA
IFR 29°C / 8°C 320º 10kt 3200m Haze Few Clouds 3500ft
Few Clouds 4000ft
Scattered Clouds 10000ft
1007 No Significant change VIDP 212030Z 32010KT 3200 HZ FEW035 FEW040CB SCT100 29/08 Q1007 NOSIG
IFR 30°C / 10°C 320º 4kt 3500m Haze Few Clouds 10000ft 1007 No Significant change VIDP 212000Z 32004KT 3500 HZ FEW100 30/10 Q1007 NOSIG
IFR 30°C / 10°C 290º 7kt 3500m Haze Clear 1007 No Significant change VIDP 211930Z 29007KT 3500 HZ NSC 30/10 Q1007 NOSIG
IFR 30°C / 10°C 300º 3kt 3500m Haze Clear 1007 No Significant change VIDP 211900Z 30003KT 3500 HZ NSC 30/10 Q1007 NOSIG
IFR 31°C / 10°C 2kt 3600m Haze Clear 1007 No Significant change VIDP 211830Z VRB02KT 3600 HZ NSC 31/10 Q1007 NOSIG
IFR 31°C / 10°C 330º 5kt 4000m Haze Clear 1007 No Significant change VIDP 211800Z 33005KT 4000 HZ NSC 31/10 Q1007 NOSIG
IFR 31°C / 10°C 330º 5kt 4000m Haze Few Clouds 10000ft 1007 No Significant change VIDP 211730Z 33005KT 4000 HZ FEW100 31/10 Q1007 NOSIG
IFR 31°C / 10°C 320º 3kt 4000m Haze Few Clouds 10000ft 1007 No Significant change VIDP 211700Z 32003KT 4000 HZ FEW100 31/10 Q1007 NOSIG
IFR 31°C / 10°C 320º 4kt 4000m Haze Few Clouds 10000ft 1007 No Significant change VIDP 211630Z 32004KT 4000 HZ FEW100 31/10 Q1007 NOSIG
IFR 31°C / 10°C 320º 3kt 4000m Haze Few Clouds 10000ft 1006 No Significant change VIDP 211600Z 32003KT 4000 HZ FEW100 31/10 Q1006 NOSIG
IFR 32°C / 10°C 330º 4kt 4000m Haze Few Clouds 10000ft 1006 No Significant change VIDP 211530Z 33004KT 4000 HZ FEW100 32/10 Q1006 NOSIG
IFR 33°C / 10°C 310º 4kt 4000m Haze Few Clouds 10000ft 1006 No Significant change VIDP 211500Z 31004KT 4000 HZ FEW100 33/10 Q1006 NOSIG
IFR 33°C / 9°C 320º 4kt 4500m Haze Few Clouds 10000ft 1006 No Significant change VIDP 211430Z 32004KT 4500 HZ FEW100 33/09 Q1006 NOSIG
IFR 34°C / 9°C 300º 4kt 4500m Haze Few Clouds 10000ft 1006 No Significant change VIDP 211400Z 30004KT 4500 HZ FEW100 34/09 Q1006 NOSIG
MVFR 35°C / 9°C 280º 7kt 5000m Haze Few Clouds 10000ft 1005 No Significant change VIDP 211330Z 28007KT 5000 HZ FEW100 35/09 Q1005 NOSIG
MVFR 36°C / 9°C 280º 6kt 5000m Haze Few Clouds 10000ft 1005 No Significant change VIDP 211300Z 28006KT 5000 HZ FEW100 36/09 Q1005 NOSIG
MVFR 36°C / 9°C 280º 7kt 5000m Haze Few Clouds 10000ft 1005 No Significant change VIDP 211230Z 28007KT 5000 HZ FEW100 36/09 Q1005 NOSIG
MVFR 36°C / 9°C 280º 6kt 5000m Haze Few Clouds 10000ft 1005 No Significant change VIDP 211200Z 28006KT 5000 HZ FEW100 36/09 Q1005 NOSIG
MVFR 36°C / 9°C 290º 9kt 5000m Haze Few Clouds 3500ft
Scattered Clouds 10000ft
1005 No Significant change VIDP 211130Z 29009KT 5000 HZ FEW035 SCT100 36/09 Q1005 NOSIG
MVFR 36°C / 9°C 280º 9kt 5000m Haze Few Clouds 3500ft
Scattered Clouds 10000ft
1005 No Significant change VIDP 211100Z 28009KT 5000 HZ FEW035 SCT100 36/09 Q1005 NOSIG
MVFR 36°C / 9°C 290º 6kt Gust 16kt 6000m - Scattered Clouds 3500ft
Scattered Clouds 10000ft
1005 Becoming: Visibility 5000. Haze . VIDP 211030Z 29006G16KT 6000 SCT035 SCT100 36/09 Q1005 BECMG 5000 HZ
MVFR 36°C / 9°C 280º 6kt Gust 16kt 7000m - Scattered Clouds 3500ft
Scattered Clouds 10000ft
1005 No Significant change VIDP 211000Z 28006G16KT 7000 SCT035 SCT100 36/09 Q1005 NOSIG

IFR

26°C / 8°C

[More]
Wind 320º 10kt Gust 20kt
Visibility 3200m
Weather Thunderstorm
Clouds Few Clouds 3500ft
Few Clouds 4000ft
Broken Clouds 10000ft
Pressure 1008
Change Temporary: Wind 320º 10kt. Gust 20KT. Visibility 2000. Light Thunderstorm Rain .
Raw VIDP 212130Z 32010G20KT 3200 TS FEW035 FEW040CB BKN100 26/08 Q1008 TEMPO 32010G20KT 2000 -TSRA

IFR

28°C / 9°C

[More]
Wind 320º 6kt Gust 16kt
Visibility 3200m
Weather Haze
Clouds Few Clouds 3500ft
Few Clouds 4000ft
Scattered Clouds 10000ft
Pressure 1007
Change Temporary: Visibility 3000. Light Thunderstorm Rain .
Raw VIDP 212100Z 32006G16KT 3200 HZ FEW035 FEW040CB SCT100 28/09 Q1007 TEMPO 3000 -TSRA

IFR

29°C / 8°C

[More]
Wind 320º 10kt
Visibility 3200m
Weather Haze
Clouds Few Clouds 3500ft
Few Clouds 4000ft
Scattered Clouds 10000ft
Pressure 1007
Change No Significant change
Raw VIDP 212030Z 32010KT 3200 HZ FEW035 FEW040CB SCT100 29/08 Q1007 NOSIG

IFR

30°C / 10°C

[More]
Wind 320º 4kt
Visibility 3500m
Weather Haze
Clouds Few Clouds 10000ft
Pressure 1007
Change No Significant change
Raw VIDP 212000Z 32004KT 3500 HZ FEW100 30/10 Q1007 NOSIG

IFR

30°C / 10°C

[More]
Wind 290º 7kt
Visibility 3500m
Weather Haze
Clouds Clear
Pressure 1007
Change No Significant change
Raw VIDP 211930Z 29007KT 3500 HZ NSC 30/10 Q1007 NOSIG

IFR

30°C / 10°C

[More]
Wind 300º 3kt
Visibility 3500m
Weather Haze
Clouds Clear
Pressure 1007
Change No Significant change
Raw VIDP 211900Z 30003KT 3500 HZ NSC 30/10 Q1007 NOSIG

IFR

31°C / 10°C

[More]
Wind 2kt
Visibility 3600m
Weather Haze
Clouds Clear
Pressure 1007
Change No Significant change
Raw VIDP 211830Z VRB02KT 3600 HZ NSC 31/10 Q1007 NOSIG

IFR

31°C / 10°C

[More]
Wind 330º 5kt
Visibility 4000m
Weather Haze
Clouds Clear
Pressure 1007
Change No Significant change
Raw VIDP 211800Z 33005KT 4000 HZ NSC 31/10 Q1007 NOSIG

IFR

31°C / 10°C

[More]
Wind 330º 5kt
Visibility 4000m
Weather Haze
Clouds Few Clouds 10000ft
Pressure 1007
Change No Significant change
Raw VIDP 211730Z 33005KT 4000 HZ FEW100 31/10 Q1007 NOSIG

IFR

31°C / 10°C

[More]
Wind 320º 3kt
Visibility 4000m
Weather Haze
Clouds Few Clouds 10000ft
Pressure 1007
Change No Significant change
Raw VIDP 211700Z 32003KT 4000 HZ FEW100 31/10 Q1007 NOSIG

IFR

31°C / 10°C

[More]
Wind 320º 4kt
Visibility 4000m
Weather Haze
Clouds Few Clouds 10000ft
Pressure 1007
Change No Significant change
Raw VIDP 211630Z 32004KT 4000 HZ FEW100 31/10 Q1007 NOSIG

IFR

31°C / 10°C

[More]
Wind 320º 3kt
Visibility 4000m
Weather Haze
Clouds Few Clouds 10000ft
Pressure 1006
Change No Significant change
Raw VIDP 211600Z 32003KT 4000 HZ FEW100 31/10 Q1006 NOSIG

IFR

32°C / 10°C

[More]
Wind 330º 4kt
Visibility 4000m
Weather Haze
Clouds Few Clouds 10000ft
Pressure 1006
Change No Significant change
Raw VIDP 211530Z 33004KT 4000 HZ FEW100 32/10 Q1006 NOSIG

IFR

33°C / 10°C

[More]
Wind 310º 4kt
Visibility 4000m
Weather Haze
Clouds Few Clouds 10000ft
Pressure 1006
Change No Significant change
Raw VIDP 211500Z 31004KT 4000 HZ FEW100 33/10 Q1006 NOSIG

IFR

33°C / 9°C

[More]
Wind 320º 4kt
Visibility 4500m
Weather Haze
Clouds Few Clouds 10000ft
Pressure 1006
Change No Significant change
Raw VIDP 211430Z 32004KT 4500 HZ FEW100 33/09 Q1006 NOSIG

IFR

34°C / 9°C

[More]
Wind 300º 4kt
Visibility 4500m
Weather Haze
Clouds Few Clouds 10000ft
Pressure 1006
Change No Significant change
Raw VIDP 211400Z 30004KT 4500 HZ FEW100 34/09 Q1006 NOSIG

MVFR

35°C / 9°C

[More]
Wind 280º 7kt
Visibility 5000m
Weather Haze
Clouds Few Clouds 10000ft
Pressure 1005
Change No Significant change
Raw VIDP 211330Z 28007KT 5000 HZ FEW100 35/09 Q1005 NOSIG

MVFR

36°C / 9°C

[More]
Wind 280º 6kt
Visibility 5000m
Weather Haze
Clouds Few Clouds 10000ft
Pressure 1005
Change No Significant change
Raw VIDP 211300Z 28006KT 5000 HZ FEW100 36/09 Q1005 NOSIG

MVFR

36°C / 9°C

[More]
Wind 280º 7kt
Visibility 5000m
Weather Haze
Clouds Few Clouds 10000ft
Pressure 1005
Change No Significant change
Raw VIDP 211230Z 28007KT 5000 HZ FEW100 36/09 Q1005 NOSIG

MVFR

36°C / 9°C

[More]
Wind 280º 6kt
Visibility 5000m
Weather Haze
Clouds Few Clouds 10000ft
Pressure 1005
Change No Significant change
Raw VIDP 211200Z 28006KT 5000 HZ FEW100 36/09 Q1005 NOSIG

MVFR

36°C / 9°C

[More]
Wind 290º 9kt
Visibility 5000m
Weather Haze
Clouds Few Clouds 3500ft
Scattered Clouds 10000ft
Pressure 1005
Change No Significant change
Raw VIDP 211130Z 29009KT 5000 HZ FEW035 SCT100 36/09 Q1005 NOSIG

MVFR

36°C / 9°C

[More]
Wind 280º 9kt
Visibility 5000m
Weather Haze
Clouds Few Clouds 3500ft
Scattered Clouds 10000ft
Pressure 1005
Change No Significant change
Raw VIDP 211100Z 28009KT 5000 HZ FEW035 SCT100 36/09 Q1005 NOSIG

MVFR

36°C / 9°C

[More]
Wind 290º 6kt Gust 16kt
Visibility 6000m
Weather -
Clouds Scattered Clouds 3500ft
Scattered Clouds 10000ft
Pressure 1005
Change Becoming: Visibility 5000. Haze .
Raw VIDP 211030Z 29006G16KT 6000 SCT035 SCT100 36/09 Q1005 BECMG 5000 HZ

MVFR

36°C / 9°C

[More]
Wind 280º 6kt Gust 16kt
Visibility 7000m
Weather -
Clouds Scattered Clouds 3500ft
Scattered Clouds 10000ft
Pressure 1005
Change No Significant change
Raw VIDP 211000Z 28006G16KT 7000 SCT035 SCT100 36/09 Q1005 NOSIG

TAF for New Delhi (VIDP)

From till


From till Wind 290º 7kt. Visibility 3500m. Haze . Few Clouds 10000ft.
Becoming from till
Becoming from till

Raw: TAF VIDP 212000Z 2121/2206 29007KT 3500 HZ FEW100 BECMG 2200/2202 2200 HZ BECMG 2204/2206 27005KT 4000 HZ

Radar for New Delhi

Drizzle
Light
Moderate
Heavy
Very Heavy
Hail

The location marker is placed on New Delhi. Orange crosses indicate lightning. Data provided by nowcast.de (available in USA, Europe, Australia). Drizzle or light snow fall might be invisible for the radar. Precipitation intensity is colour coded, ranging from turquoise to red.

Current satellite and rain images for New Delhi, India

The location marker is placed on New Delhi. [More]

The real-time satellite image combines visible light during daytime with infrared radiation during nighttime. At night, the image is not dark as infrared radiation can detect temperature differences. Unfortunately, low clouds and fog are difficult to distinguish from ground temperatures and thus can be almost invisible during the night. Meteosat satellite images for Europe are updated in real-time every 5 minutes. GOES-16/GOES-17 (North & South America) and Himawari (Asia) images update every 10 minutes.

Precipitation is estimated from radar and satellites. Precipitation estimates from satellites are less accurate at night than during daytime.

© 2024 meteoblue, NOAA Satellites GOES-16 and EUMETSAT. Lightning data provided by nowcast.

Back to top
×
Hey there,
seems like you are using an ad blocker.

Advertising is essential to maintain our free website with unique detail and accuracy.

Please whitelist www.meteoblue.com on your ad blocker or consider buying one of our products:

Already have a subscription?
Then please login.